Wind from 171

Air temperature 15.0° C
Dewpoint 12.1° C

Last reported at 2014-Apr-24 21:55 UTC.
Time now 2014-Apr-24 22:21 UTC

Location: N 39°56' E 004°08'.
View on Google Maps.

See reports from other nearby stations

Tides Stations Pressure Air Temp Water Temp Dewpoint Dewpoint depression Visibility Wind Speed Wind Dir Waves Ship positions

  
sailing weather and tide predictions

DW4005 Mahon ES weather

date/time (UTC)wind fromknots sea level pressurealtimeterstation pressurevisibilityair tempwater tempwave heightnotes
2014-Apr-24 21:55 171 15.0
2014-Apr-24 21:40 172 15.0
2014-Apr-24 21:25 182 15.6
2014-Apr-24 20:55 182 15.6
2014-Apr-24 20:40 182 15.6
2014-Apr-24 20:25 182 15.6
2014-Apr-24 19:55 182 16.1
2014-Apr-24 19:40 182 0 gusting 6 16.7
2014-Apr-24 19:25 179 1 gusting 7 16.7
2014-Apr-24 19:10 169 6 gusting 11 16.7
2014-Apr-24 18:55 171 2 gusting 7 17.2
2014-Apr-24 18:40 169 17.2
2014-Apr-24 18:25 164 17.2
2014-Apr-24 17:55 153 18.3
2014-Apr-24 17:40 196 3 gusting 12 18.3
2014-Apr-24 17:25 178 1 gusting 6 18.9
2014-Apr-24 17:10 163 20.0
2014-Apr-24 16:57 167 20.0
2014-Apr-24 16:53 184 20.0
2014-Apr-24 16:38 146 2 gusting 7 20.6
2014-Apr-24 16:23 168 2 gusting 12 20.6
2014-Apr-24 16:08 170 6 gusting 11 20.6
2014-Apr-24 15:53 188 0 gusting 9 21.1
2014-Apr-24 15:38 179 1 gusting 13 21.1
2014-Apr-24 15:23 167 0 gusting 12 21.7
2014-Apr-24 15:08 141 21.7
2014-Apr-24 14:53 167 21.7
2014-Apr-24 14:38 153 5 gusting 13 21.7
2014-Apr-24 14:23 174 4 gusting 13 22.2
2014-Apr-24 14:08 212 3 gusting 12 22.2
2014-Apr-24 13:53 170 1 gusting 13 22.2
2014-Apr-24 13:38 200 2 gusting 6 22.8
2014-Apr-24 13:23 192 0 gusting 7 22.8
2014-Apr-24 13:08 181 4 gusting 13 22.2
2014-Apr-24 12:53 140 22.8
2014-Apr-24 12:38 070 21.7
2014-Apr-24 12:23 090 21.1
2014-Apr-24 12:08 107 0 gusting 4 21.7
2014-Apr-24 11:53 111 0 gusting 7 21.7
2014-Apr-24 11:38 093 21.1
2014-Apr-24 11:23 069 21.1
2014-Apr-24 11:08 098 21.1
2014-Apr-24 10:53 046 22.2
2014-Apr-24 10:38 009 22.2
2014-Apr-24 10:23 297 23.3
2014-Apr-24 10:08 296 24.4
2014-Apr-24 09:52 292 23.9
2014-Apr-24 09:37 292 23.9
2014-Apr-24 09:22 289 24.4
2014-Apr-24 09:07 289 23.9
2014-Apr-24 08:52 289 22.8
2014-Apr-24 08:37 289 22.2
2014-Apr-24 08:22 289 22.2
2014-Apr-24 08:07 289 22.2
2014-Apr-24 07:52 289 21.1
2014-Apr-24 07:37 289 19.4
2014-Apr-24 07:22 288 18.9
2014-Apr-24 07:07 288 17.8
2014-Apr-24 06:52 288 17.2
2014-Apr-24 06:37 288 16.7
2014-Apr-24 06:22 288 16.7
2014-Apr-24 06:07 288 16.1
2014-Apr-24 05:52 289 15.6
2014-Apr-24 05:37 290 15.6
2014-Apr-24 05:22 290 15.6
2014-Apr-24 05:07 291 15.0
2014-Apr-24 04:52 291 15.0
2014-Apr-24 04:37 291 15.0
2014-Apr-24 04:22 291 15.0
2014-Apr-24 04:07 292 15.0
2014-Apr-24 03:52 292 15.0
2014-Apr-24 03:37 294 15.0
2014-Apr-24 03:22 294 15.0
2014-Apr-24 03:07 295 15.0
2014-Apr-24 02:52 296 15.0
2014-Apr-24 02:37 311 15.0
2014-Apr-24 02:22 311 15.0
2014-Apr-24 02:07 315 15.0
2014-Apr-24 01:52 318 15.0
2014-Apr-24 01:37 318 15.0
2014-Apr-24 01:22 318 15.0
2014-Apr-24 01:07 319 15.0
2014-Apr-24 00:52 322 15.0
2014-Apr-24 00:37 318 0 gusting 6 15.6
2014-Apr-24 00:22 163 15.6
2014-Apr-24 00:07 163 15.6
2014-Apr-23 23:52 163 2 gusting 9 15.6
2014-Apr-23 23:37 161 4 gusting 7 15.6
2014-Apr-23 23:22 154 2 gusting 6 15.0
2014-Apr-23 23:07 155 15.6
2014-Apr-23 22:52 168 15.6
2014-Apr-23 22:37 169 0 gusting 4 15.6
2014-Apr-23 22:22 309 15.6
2014-Apr-23 22:07 308 15.6
2014-Apr-23 21:52 309 15.6
2014-Apr-23 21:37 064 15.6
2014-Apr-23 21:22 113 0 gusting 5 16.1
2014-Apr-23 21:07 167 15.6
2014-Apr-23 20:52 177 6 gusting 12 16.1
2014-Apr-23 20:36 157 16.1
2014-Apr-23 20:21 198 6 gusting 12 16.1
2014-Apr-23 20:06 161 3 gusting 10 16.1
2014-Apr-23 19:51 167 3 gusting 9 16.1
2014-Apr-23 19:36 157 16.7
2014-Apr-23 19:21 159 16.7
2014-Apr-23 19:06 163 2 gusting 8 16.7
2014-Apr-23 18:51 157 0 gusting 5 16.7
2014-Apr-23 18:36 153 17.2
2014-Apr-23 18:21 153 17.8
2014-Apr-23 18:06 157 18.9
2014-Apr-23 17:51 153 18.9
2014-Apr-23 17:36 154 18.9
2014-Apr-23 17:21 143 19.4
2014-Apr-23 17:06 159 20.0
2014-Apr-23 16:51 238 21.1
2014-Apr-23 16:36 351 21.1
2014-Apr-23 16:21 023 20.6
2014-Apr-23 15:51 048 21.1
2014-Apr-23 15:36 048 21.1
2014-Apr-23 15:21 045 21.1
2014-Apr-23 15:06 034 22.2
2014-Apr-23 14:51 034 22.8
2014-Apr-23 14:36 041 22.8
2014-Apr-23 14:21 042 22.2
2014-Apr-23 14:06 048 22.8
2014-Apr-23 13:51 046 22.8
2014-Apr-23 13:21 079 21.7
2014-Apr-23 13:06 094 22.2
2014-Apr-23 12:51 049 22.8
2014-Apr-23 12:36 330 22.2
2014-Apr-23 12:21 323 21.7
2014-Apr-23 12:06 323 23.3
2014-Apr-23 11:51 323 23.3
2014-Apr-23 11:36 323 22.8
2014-Apr-23 11:21 323 22.8
2014-Apr-23 11:06 323 23.3
2014-Apr-23 10:51 323 23.3
2014-Apr-23 10:36 323 22.8
2014-Apr-23 10:21 323 22.2
2014-Apr-23 10:06 323 22.2
2014-Apr-23 09:51 323 21.7
2014-Apr-23 09:36 323 21.7
2014-Apr-23 09:21 323 21.1
2014-Apr-23 09:06 323 21.1
2014-Apr-23 08:51 323 21.1
2014-Apr-23 08:36 323 20.6
2014-Apr-23 08:21 323 20.0
2014-Apr-23 08:06 323 19.4
2014-Apr-23 07:51 323 19.4
2014-Apr-23 07:36 323 18.3
2014-Apr-23 07:21 323 17.8
2014-Apr-23 07:05 323 17.2
2014-Apr-23 06:50 321 16.7
2014-Apr-23 06:35 323 16.7
2014-Apr-23 06:20 327 1 gusting 8 15.6
2014-Apr-23 06:05 323 15.6
2014-Apr-23 05:50 321 15.0
2014-Apr-23 05:35 321 15.0
2014-Apr-23 05:20 319 1 gusting 6 15.0
2014-Apr-23 05:05 319 1 gusting 6 15.0
2014-Apr-23 04:50 328 4 gusting 7 15.0
2014-Apr-23 04:35 331 4 gusting 8 15.0
2014-Apr-23 04:20 325 2 gusting 7 15.0
2014-Apr-23 04:05 330 2 gusting 7 15.0
2014-Apr-23 03:50 323 3 gusting 9 15.0
2014-Apr-23 03:35 324 4 gusting 9 15.0
2014-Apr-23 03:20 315 3 gusting 8 15.0
2014-Apr-23 02:50 313 3 gusting 7 15.0
2014-Apr-23 02:35 318 3 gusting 6 15.0
2014-Apr-23 02:20 315 2 gusting 9 15.6
2014-Apr-23 02:05 330 15.0
2014-Apr-23 01:50 313 15.0
2014-Apr-23 01:35 309 3 gusting 8 15.0
2014-Apr-23 01:20 309 1 gusting 5 15.0
2014-Apr-23 01:05 310 1 gusting 7 15.0
2014-Apr-23 00:50 316 3 gusting 9 15.6
2014-Apr-23 00:35 321 1 gusting 7 15.6
2014-Apr-23 00:20 325 3 gusting 7 15.6
2014-Apr-23 00:05 325 15.6
2014-Apr-22 23:50 330 1 gusting 8 16.1
2014-Apr-22 23:20 313 0 gusting 6 16.1
2014-Apr-22 23:05 313 16.1
2014-Apr-22 22:50 313 16.1
2014-Apr-22 22:35 313 16.1
2014-Apr-22 22:20 314 16.1
2014-Apr-22 22:05 315 16.1